Home > Weather > Pullman > Past weeks

Flag for U.S.A. Weather for the Past 2 Weeks in Pullman, Washington, U.S.A.

Now
47 °F

Overcast.


Feels Like: 41 °F
Forecast: 40 / 51 °F
Wind: 13 mph from Southeast

Location: Pullman / Moscow Regional Airport

Current Time: Feb 11, 2016 at 12:26:28 PM

Latest Report: Feb 11, 2016 at 11:53 AM


Visibility: 10 mi

Pressure: 30.31 "Hg (27.79 "Hg at 715m altitude)

Humidity: 66%

Dew point: 36 °F

Location of PullmanLocation

Historic Weather in Pullman — Graph

°F

Pullman Temperature Yesterday

Maximum temperature yesterday: 50 °F (at 3:53 PM)
Minimum temperature yesterday: 37 °F (at 12:53 AM)
Average temperature yesterday: 43 °F

High & Low Weather Summary for the Past Weeks

 TemperatureHumidityPressure
High56 °F (Feb 9, 2:53 PM)96% (Feb 4, 6:53 AM)30.70 "Hg (Feb 4, 6:53 AM)
Low25 °F (Feb 2, 6:53 AM)53% (Feb 9, 2:53 PM)29.64 "Hg (Jan 29, 12:00 PM)
Average38 °F77%30.25 "Hg
* Reported Jan 27 10:53 AM — Feb 11 10:53 AM, Pullman, Weather by CustomWeather, © 2016

Note: Actual official high and low records may vary slightly from our data, if they occured in-between our weather recording intervals... More about our weather records

Advertising

Pullman Weather History for the Previous 24 Hours

 ConditionsComfort  
Time TempWeatherWind HumidityBarometerVisibility
10:53 AM
Thu, Feb 11
48 °FOvercast.15 mph61%30.32 "Hg10 mi
9:53 AM46 °FOvercast.9 mph68%30.34 "Hg10 mi
8:53 AM43 °FOvercast.7 mph74%30.34 "Hg10 mi
7:53 AM39 °FSunny.5 mph79%30.36 "Hg10 mi
6:53 AM37 °FClear.5 mph79%30.35 "Hg10 mi
5:53 AM38 °FClear.6 mph79%30.34 "Hg10 mi
4:53 AM40 °FClear.6 mph77%30.34 "Hg10 mi
3:53 AM41 °FClear.5 mph74%30.33 "Hg10 mi
2:53 AM42 °FClear.No wind73%30.35 "Hg10 mi
1:53 AM42 °FClear.3 mph73%30.35 "Hg10 mi
12:53 AM41 °FClear.No wind76%30.34 "Hg10 mi
11:53 PM
Wed, Feb 10
41 °FClear.3 mph76%30.34 "Hg10 mi
10:53 PM42 °FPassing clouds.No wind73%30.34 "Hg10 mi
9:53 PM43 °FOvercast.No wind74%30.34 "Hg10 mi
8:53 PM44 °FClear.3 mph68%30.33 "Hg10 mi
7:53 PM44 °FOvercast.No wind71%30.33 "Hg10 mi
6:53 PM45 °FOvercast.No wind71%30.34 "Hg10 mi
5:53 PM46 °FMostly cloudy.6 mph68%30.34 "Hg10 mi
4:53 PM48 °FMore clouds than sun.6 mph66%30.32 "Hg10 mi
3:53 PM50 °FPartly sunny.9 mph61%30.31 "Hg10 mi
2:53 PM48 °FPartly sunny.9 mph61%30.31 "Hg10 mi
1:53 PM49 °FSunny.10 mph59%30.29 "Hg10 mi
12:53 PM49 °FSunny.15 mph59%30.30 "Hg10 mi
Weather by CustomWeather, © 2016

See weather overviewHow to use our weather pages